OBJECT AU, 60510

Orbit data source: Space-Track

You're viewing an Uncataloged Satellite

Recently launched and/or uncataloged satellites may have evolving metadata. Metadata may include but not limited to: Owner, Maufacturer, Bus, Motor, and Mission.

OBJECT AU, 60510 is a satellite in SSO that was launched on Fri, 16 Aug 2024 UTC via an FALCON 9 launch vehicle from the Air Force Western Test Range (AFWTR). Unknown objects in Earth's orbit typically refer to objects detected orbiting the Earth but have not yet been identified or cataloged. These objects could be anything from previously untracked satellites, spent rocket stages, debris from satellite collisions, or even natural meteoroids temporarily captured by Earth's gravity.

Loading next visibility...
Identifier
60510, 2024-149AU
Orbit
SSO
Country
Flag of TBDTBD
Related business
None
Manufacturer
Unknown
Mission
Operational Civil Communications
Bus & Motor
Unknown
Mass
Unknown
Launch date (UTC)
2024-08-16 (1 year ago)
Launch vehicle
FALCON 9
Launch site
Air Force Western Test Range (AFWTR)
Object type
Unknown
Shape & HBR
Box, 0.2 m
Radar Cross Section
0.045 m², Small (<0.1 m²)

Expand to show TLE details & history
Last TLE update: 7 hours ago

TLE from 7 hours ago
0 OBJECT AU
1 60510U 24149AU  25297.75297868  .00017569  00000-0  56677-3 0  9991
2 60510  97.3957  15.6760 0005047  63.1535 297.0222 15.32199923 66165
Epoch: 2025-10-24T18:04Z
TLE epoch observation values (Epoch: 2025-10-24T18:04:17.357Z)
Latitude
-0.00008°
Longitude
71.21033°
Altitude
470.788 km
Speed
7.632 km/s
True Right ascension
01h 02m 42s
True Declination
0° 00' 00"
Sunlit
Object was in full shadow at epoch
Visualization orbit readout
Latitude
Unknown
Longitude
Unknown
Altitude
Unknown
Speed
Unknown
Apparent Right ascension
Unknown
Apparent Declination
Unknown
Sunlit
N/A
Visualization observer readout
Local Sidereal Time
20:01:35
Azimuth
Unknown
Elevation
Unknown
Doppler factor
Unknown
Orbital elements
Apogee altitude
469.654 km
Perigee altitude
462.745 km
Semi-major axis
6,844.336 km
Eccentricity
0.0005
Inclination
97.3957°
RAAN
15.676°
Arg. of periapsis
63.1535°
True anomaly
296.97066°
Mean anomaly
297.0222°
Eccentric anomaly
296.99643°
Mean motion
3.83306 °/min
Orbital period
93.92 mins
BSTAR
0.00056677
Loading maneuver chart data...
Computing Atmospheric mass density...
Loading historical data...
Loading historical data...
Loading historical data...
Loading historical data...
Loading historical data...
Loading historical data...
Loading historical data...

Documentation

Showing up to 5 results
|